CDT,Max TemperatureF,Mean TemperatureF,Min TemperatureF,Max Dew PointF,MeanDew PointF,Min DewpointF,Max Humidity, Mean Humidity, Min Humidity, Max Sea Level PressureIn, Mean Sea Level PressureIn, Min Sea Level PressureIn, Max VisibilityMiles, Mean VisibilityMiles, Min VisibilityMiles, Max Wind SpeedMPH, Mean Wind SpeedMPH, Max Gust SpeedMPH,PrecipitationIn, CloudCover, Events, WindDirDegrees
2013-8-1,89,79,68,70,67,65,93,69,44,30.10,30.01,29.84,10,9,5,21,8,28,0.03,1,Rain,167
2013-8-2,90,79,67,75,69,62,87,75,63,30.00,29.88,29.80,10,10,3,29,10,40,0.24,4,Rain-Thunderstorm,118
2013-8-3,87,80,72,73,71,68,93,79,65,30.09,30.00,29.90,10,8,4,18,11,24,0.10,5,,78
2013-8-4,83,77,70,72,71,67,93,81,69,30.12,30.04,29.96,10,8,1,21,7,26,1.69,6,Rain-Thunderstorm,131
2013-8-5,87,80,72,74,72,68,93,79,65,29.99,29.90,29.78,10,8,2,20,6,26,0.12,6,Rain,112
2013-8-6,92,80,68,75,70,65,93,74,55,29.83,29.80,29.76,10,10,10,20,5,24,0.00,0,,137
2013-8-7,86,78,70,73,69,66,87,76,65,29.95,29.89,29.81,10,10,2,20,8,24,0.01,2,Thunderstorm,34
2013-8-8,75,72,69,66,64,62,90,82,73,30.01,29.95,29.89,10,10,4,17,8,22,0.15,6,Rain-Thunderstorm,76
2013-8-9,79,72,64,66,62,51,84,67,49,30.14,30.06,29.98,10,10,10,17,5,23,T,5,Rain,79
2013-8-10,86,74,61,66,63,59,93,71,48,30.19,30.13,30.06,10,10,8,10,4,15,0.00,1,,124
2013-8-11,86,75,63,70,67,63,93,74,55,30.12,30.05,29.98,10,10,5,13,6,18,0.00,0,,162
2013-8-12,87,77,66,72,67,63,93,74,55,30.09,30.02,29.94,10,8,1,38,7,52,1.77,5,Rain-Thunderstorm,60
2013-8-13,82,74,66,70,67,63,93,76,58,30.13,30.07,30.01,10,9,2,17,5,28,0.69,3,Rain,102
2013-8-14,81,71,61,63,61,59,93,71,49,30.17,30.11,30.03,10,9,6,13,5,17,T,1,,151
2013-8-15,84,74,63,69,63,57,93,76,58,30.08,30.01,29.92,10,9,2,24,8,35,0.19,3,Rain-Thunderstorm,175
2013-8-16,81,72,62,66,62,61,93,76,58,30.14,30.09,30.03,10,10,7,13,6,16,0.01,5,Thunderstorm,117
2013-8-17,81,72,62,63,60,58,93,72,51,30.16,30.12,30.06,10,10,10,15,8,18,0.00,2,,139
2013-8-18,84,73,61,64,61,57,90,69,47,30.13,30.08,30.01,10,10,9,15,8,20,0.00,3,,149
2013-8-19,87,77,66,68,65,62,87,69,50,30.05,30.00,29.93,10,9,7,18,9,25,0.00,1,,162
2013-8-20,91,80,68,68,66,64,90,67,44,30.01,29.96,29.92,10,10,9,22,11,29,0.00,0,,175
2013-8-21,94,81,67,68,65,64,87,64,41,30.00,29.97,29.94,10,10,8,21,11,26,0.00,0,,172
2013-8-22,92,81,69,68,65,63,84,63,41,30.06,29.99,29.95,10,10,8,18,10,22,0.00,0,,156
2013-8-23,93,82,70,72,70,67,90,70,49,30.02,29.97,29.91,10,10,6,20,10,24,0.00,0,,142
2013-8-24,95,85,74,70,70,68,87,65,43,30.05,30.01,29.97,10,10,8,21,13,29,0.00,0,,168
2013-8-25,96,85,73,71,69,67,84,63,42,30.12,30.07,30.03,10,10,8,20,12,23,0.00,0,,175
2013-8-26,97,85,73,69,68,65,87,63,38,30.09,30.05,29.99,10,10,9,23,13,31,0.00,0,,185
2013-8-27,97,84,71,67,64,59,79,55,30,30.01,29.97,29.94,10,10,10,24,13,29,0.00,0,,189
2013-8-28,93,80,67,71,68,63,93,69,44,30.01,29.97,29.95,10,10,10,14,7,21,0.00,0,,166
2013-8-29,100,86,72,71,67,62,87,58,29,29.97,29.93,29.88,10,10,10,20,9,24,0.00,0,,180
2013-8-30,103,87,70,67,64,60,84,55,25,29.93,29.87,29.80,10,10,10,13,7,17,0.00,0,,191
2013-8-31,99,86,73,74,70,64,85,62,38,29.85,29.80,29.74,10,10,8,16,6,20,0.00,0,,109